ONEWEB-0316 (49102 NORAD) Tracking and Keplerian Element Data

This shows tracking and keplerian element data for the satellite.

Feedback or suggestion? Click here.




ElementValue
Catalog49102
NameONEWEB-0316
Epoch Orbit559
Epoch Day261.91667824
Epoch Year2021
RAAN356.4166
Inclination87.3374
Eccentricity0.0019493
Argument of Perigee181.7503
Mean Anonmoly169.3019
Mean Motion15.23447667
Decay Rate-0.00944699
L11 49102U 21075AD 21261.91667824 -.00944699 00000-0 -42618-1 0 9991
L22 49102 87.3374 356.4166 0019493 181.7503 169.3019 15.23447667 5595

Live tracking and technical data element details for ONEWEB-0316 (NORAD 49102). ONEWEB-0316 can be tracked NOW for your location showing map with azimuth and elevation plus other details from your city location.

Track the satellite on the map from your city or location and see movement details for azimuth, elevation, latitude, longitude, range, height, and movement on the map or in text.







IsCatalogInMostPopularTable: catalog: 49102, numindb: 4
Update: records affected: 1



GetName: 49102 ONEWEB-0316

Hit Count: updated at: Fri, 24 Sep 2021 18:56:46 GMT